Weather Roundup
Issued by NWS

Home | Current Version | Previous Version | Text Only | Print | Product List | Glossary On
Versions: 1 2 3 4 5 6 7 8 9 10 11 12 13 14 15 16 17 18 19 20 21 22 23 24 25 26 27 28 29 30 31 32 33 34 35 36 37 38 39 40 41 42 43 44 45 46 47 48 49 50
000
NZUS93 KARX 231310
HRRWXR

CURRENT HOURLY OBSERVATIONS ACROSS
MUCH OF THE UPPER MISSISSIPPI VALLEY
NATIONAL WEATHER SERVICE LA CROSSE WI
800 AM CDT THU OCT 23 2014


...SOUTHEAST MINNESOTA...


CITY           SKY/WX    TMP DP  RH WIND       PRES   REMARKS
ROCHESTER      LGT RAIN  48  46  93 S9        30.02F FOG
ROCHESTER/MAYO CLOUDY    48  47  95 S8        30.02S
WINONA         CLOUDY    48  46  93 SE3       30.04F
AUSTIN         CLOUDY    48  46  93 S8        30.01S
ALBERT LEA     CLOUDY    48  48 100 S5        30.01R FOG
DODGE CENTER   LGT RAIN  48  46  93 S9        30.01S
PRESTON        LGT RAIN  46  45  95 S9        30.03F
OWATONNA       CLOUDY    50  46  87 S5        30.01S FOG
FARIBAULT      CLOUDY    50  48  93 S5        30.01R FOG
$$

...ELSEWHERE IN MINNESOTA...


CITY           SKY/WX    TMP DP  RH WIND       PRES   REMARKS
MINNEAPOLIS    CLOUDY    53  50  89 S7        29.99S
INTNL FALLS    CLOUDY    49  48  97 VRB6      29.89R
DULUTH         CLOUDY    48  44  86 S8        29.95S FOG
RED WING       NOT AVBL
REDWOOD FALLS  PTCLDY    46  45  96 SW8       29.98S FOG
MANKATO        CLOUDY    52  46  82 S6        30.00S
WORTHINGTON    CLOUDY    48  46  93 SW3       30.02S VSB<1/4
FAIRMONT       CLOUDY    54  48  82 W7        30.01R VSB 3/4
$$

...SOUTHWEST WISCONSIN...


CITY           SKY/WX    TMP DP  RH WIND       PRES   REMARKS
LA CROSSE      CLOUDY    50  46  86 S8        30.05F
PRAIRIE DU CHI DRIZZLE   50  39  66 SE3       30.08F
BOSCOBEL       CLOUDY    49  38  65 CALM      30.10F
LONE ROCK      CLOUDY    49  37  63 E9        30.12F
PLATTEVILLE    CLOUDY    45  38  78 SE8       30.12S
FORT MC COY    RAIN      47  43  85 SE3       30.07F
CAMP DOUGLAS   CLOUDY    48  41  76 S9        30.08F
VIROQUA        CLOUDY    45  43  93 SE7       30.06F
WIS DELLS      CLOUDY    44  35  69 S8        30.12S
$$

...ELSEWHERE IN WISCONSIN...


CITY           SKY/WX    TMP DP  RH WIND       PRES   REMARKS
MILWAUKEE      MOCLDY    37  34  89 SW6       30.21R WCI  32
MADISON        MOCLDY    41  36  82 S9        30.16F
GREEN BAY      CLEAR     39  35  86 S7        30.16F WCI  34
EAU CLAIRE     LGT RAIN  47  45  93 S6        30.02F FOG
BLACK RVR FLS  LGT RAIN  47  47 100 CALM      30.06S
MEDFORD        DRIZZLE   41  39  92 SE10      30.05F
WAUSAU         LGT RAIN  42  39  89 SE8       30.09S
WIS RAPIDS     CLOUDY    42  39  89 S5        30.11F
MARSHFIELD     CLOUDY    44  40  85 S7        30.07F
RICE LAKE      DRIZZLE   47  44  89 SE7       30.02F
$$

...NORTHEAST IOWA...


CITY           SKY/WX    TMP DP  RH WIND       PRES   REMARKS
DECORAH        CLOUDY    46  45  93 CALM      30.05R
MASON CITY     CLOUDY    49  48  97 S10       30.03S FOG
CHARLES CITY   LGT RAIN  48  46  93 S7        30.04F
OELWEIN        CLOUDY    48  45  87 S13       30.06R
$$

...ELSEWHERE IN IOWA...


CITY           SKY/WX    TMP DP  RH WIND       PRES   REMARKS
DES MOINES     LGT RAIN  54  51  90 S7        30.04S
IOWA CITY      CLOUDY    47  41  80 E6        30.10F
FORT DODGE     CLOUDY    54  52  94 S5        30.02S
$$

...NORTHERN ILLINOIS...


CITY           SKY/WX    TMP DP  RH WIND       PRES   REMARKS
CHICAGO-OHARE  MOCLDY    38  36  92 S6        30.21S WCI  33
CHICAGO-MIDWAY MOCLDY    42  39  89 S7        30.22S
MOLINE         CLOUDY    43  38  82 SE5       30.14F
ROCKFORD       MOCLDY    37  34  89 SE7       30.20F WCI  32
PEORIA         PTCLDY    43  37  79 S6        30.20S
$$

NOTE: "FAIR" INDICATES FEW OR NO CLOUDS BELOW 12,000 FEET WITH NO
SIGNIFICANT WEATHER AND/OR OBSTRUCTIONS TO VISIBILITY. WIND
SPEEDS ARE IN MILES-PER-HOUR.



USA.gov is the U.S. government's official web portal to all federal, state and local government web resources and services.